AIR4 KVGT-KVGT

Flight info

Callsign AIR4
Flight time 0h 1m
Altitude 2500
Route DCT
Aircraft AS50/L-SDFGRY/C

Departure

Time 2026-05-04 16:55
Airport North Las Vegas Airport (KVGT)

Arrival

Time 2026-05-04 16:56
Airport North Las Vegas Airport (KVGT)
Time Latitude Longitude Altitude Speed Heading
2026-05-04 16:37 36.21134 -115.18756 2178 ft 0 kts 111°
2026-05-04 16:53 36.21134 -115.18754 2182 ft 2 kts 104°
2026-05-04 16:53 36.21134 -115.18727 2188 ft 3 kts 99°
2026-05-04 16:54 36.21117 -115.18649 2363 ft 22 kts 120°
2026-05-04 16:55 36.20161 -115.17837 3350 ft 51 kts 150°
2026-05-04 16:55 36.19298 -115.17304 3261 ft 56 kts 157°
2026-05-04 16:56 36.18886 -115.17144 3240 ft 14 kts 160°
2026-05-04 16:56 36.18765 -115.17241 3303 ft 7 kts 133°
2026-05-04 16:57 36.18688 -115.17236 3161 ft 28 kts 141°
2026-05-04 16:57 36.18114 -115.17104 3169 ft 47 kts 168°
2026-05-04 16:58 36.17099 -115.17515 3158 ft 77 kts 258°
2026-05-04 16:58 36.17117 -115.18198 3156 ft 81 kts 271°
2026-05-04 16:59 36.17225 -115.19667 3160 ft 90 kts 271°
2026-05-04 17:00 36.16338 -115.21528 3162 ft 85 kts 172°
2026-05-04 17:00 36.14367 -115.21113 3158 ft 87 kts 175°
2026-05-04 17:01 36.13180 -115.20999 3158 ft 85 kts 175°
2026-05-04 17:01 36.12442 -115.21513 3160 ft 88 kts 259°
2026-05-04 17:02 36.13418 -115.22071 3161 ft 95 kts 41°
2026-05-04 17:02 36.13187 -115.20971 3162 ft 80 kts 169°
2026-05-04 17:03 36.12635 -115.20940 3163 ft 79 kts 182°
2026-05-04 17:03 36.12085 -115.20967 3158 ft 79 kts 183°
2026-05-04 17:03 36.10991 -115.21033 3160 ft 80 kts 183°
2026-05-04 17:04 36.09872 -115.21069 3159 ft 80 kts 181°
2026-05-04 17:04 36.08757 -115.21087 3158 ft 80 kts 181°
2026-05-04 17:05 36.07656 -115.21096 3163 ft 79 kts 181°
2026-05-04 17:05 36.06559 -115.21095 3167 ft 79 kts 180°
2026-05-04 17:06 36.05459 -115.21086 3168 ft 78 kts 180°
2026-05-04 17:06 36.05013 -115.20761 3164 ft 82 kts 124°
2026-05-04 17:07 36.05651 -115.19611 3202 ft 93 kts 31°
2026-05-04 17:07 36.06050 -115.19389 3186 ft 96 kts 32°
2026-05-04 17:07 36.06445 -115.18547 3027 ft 79 kts 91°
2026-05-04 17:07 36.06250 -115.18124 2871 ft 48 kts 194°
2026-05-04 17:08 36.06162 -115.18171 2912 ft 11 kts 38°
2026-05-04 17:08 36.06478 -115.18070 2688 ft 55 kts
2026-05-04 17:08 36.06900 -115.18076 2692 ft 68 kts
2026-05-04 17:09 36.07402 -115.18100 2654 ft 72 kts
2026-05-04 17:09 36.07904 -115.18128 2614 ft 77 kts
2026-05-04 17:09 36.08419 -115.17945 2649 ft 73 kts 55°
2026-05-04 17:10 36.09144 -115.17291 2710 ft 71 kts 12°
2026-05-04 17:10 36.10512 -115.17291 2602 ft 56 kts
2026-05-04 17:11 36.10856 -115.17294 2576 ft 45 kts
2026-05-04 17:11 36.11119 -115.17280 2480 ft 34 kts
2026-05-04 17:11 36.11649 -115.17299 2467 ft 40 kts
2026-05-04 17:12 36.11960 -115.17263 2470 ft 46 kts
2026-05-04 17:12 36.12492 -115.16964 2557 ft 43 kts 33°
2026-05-04 17:13 36.13316 -115.16428 2707 ft 45 kts 30°
2026-05-04 17:14 36.14208 -115.15821 2815 ft 52 kts 38°
2026-05-04 17:14 36.14346 -115.15474 2788 ft 46 kts 112°
2026-05-04 17:14 36.13743 -115.15402 2784 ft 54 kts 201°
2026-05-04 17:15 36.13410 -115.15648 2799 ft 55 kts 206°
2026-05-04 17:15 36.12705 -115.16177 2995 ft 61 kts 203°
2026-05-04 17:16 36.11875 -115.16509 3234 ft 54 kts 232°
2026-05-04 17:16 36.11226 -115.17138 3489 ft 45 kts 208°
2026-05-04 17:17 36.10923 -115.17309 3431 ft 56 kts 188°
2026-05-04 17:17 36.10123 -115.17361 2731 ft 34 kts 185°
2026-05-04 17:18 36.09920 -115.17368 2643 ft 26 kts 182°
2026-05-04 17:18 36.09400 -115.17359 2660 ft 47 kts 179°
2026-05-04 17:19 36.08650 -115.17312 2605 ft 56 kts 179°
2026-05-04 17:19 36.07973 -115.17327 2562 ft 34 kts 149°
2026-05-04 17:20 36.07627 -115.17341 2449 ft 30 kts 170°
2026-05-04 17:20 36.07191 -115.17234 2517 ft 41 kts 145°
2026-05-04 17:20 36.07104 -115.16873 2577 ft 48 kts 121°
2026-05-04 17:21 36.07032 -115.16083 2641 ft 38 kts 113°
2026-05-04 17:21 36.06918 -115.15550 2715 ft 36 kts 121°
2026-05-04 17:22 36.06870 -115.15182 2733 ft 53 kts 105°
2026-05-04 17:22 36.06871 -115.14639 2803 ft 72 kts 108°
2026-05-04 17:23 36.06817 -115.12574 2891 ft 84 kts 98°
2026-05-04 17:23 36.06871 -115.11871 2865 ft 96 kts 71°
2026-05-04 17:23 36.08198 -115.11576 2777 ft 92 kts 359°
2026-05-04 17:24 36.08605 -115.11997 2726 ft 72 kts 283°
2026-05-04 17:24 36.08917 -115.13233 2490 ft 35 kts 267°
2026-05-04 17:25 36.08941 -115.13440 2420 ft 14 kts 269°
2026-05-04 17:25 36.08995 -115.13508 2363 ft 3 kts 264°
2026-05-04 17:26 36.09244 -115.14145 2544 ft 78 kts 337°
2026-05-04 17:26 36.10946 -115.14236 2850 ft 84 kts
2026-05-04 17:27 36.12067 -115.14168 2970 ft 77 kts
2026-05-04 17:27 36.13194 -115.14139 3072 ft 86 kts
2026-05-04 17:28 36.14395 -115.14055 3177 ft 88 kts
2026-05-04 17:29 36.16529 -115.14140 3268 ft 116 kts
2026-05-04 17:29 36.18616 -115.14728 3404 ft 93 kts 343°
2026-05-04 17:30 36.20071 -115.15920 3248 ft 87 kts 328°
2026-05-04 17:31 36.21012 -115.16980 2923 ft 91 kts 299°
2026-05-04 17:31 36.21224 -115.18482 2358 ft 31 kts 256°
2026-05-04 17:32 36.21173 -115.18687 2205 ft 4 kts 193°
2026-05-04 17:33 36.21137 -115.18681 2177 ft 0 kts 185°